Change the Weather History Date:

Thursday, February 6, 2014

  Actual Average (KAIZ) Record (KAIZ)
Temperature  
Mean Temperature 8 °F -  
Max Temperature 14 °F 43 °F 66 °F (2009)
Min Temperature 1 °F 25 °F -2 °F (2014)
Degree Days  
Heating Degree Days 58    
Moisture  
Dew Point -2 °F    
Average Humidity 66    
Maximum Humidity 85    
Minimum Humidity 48    
Precipitation  
Precipitation 0.00 in - - ()
Sea Level Pressure  
Sea Level Pressure 30.54 in    
Wind  
Wind Speed 5 mph (NW)    
Max Wind Speed 10 mph    
Max Gust Speed -    
Visibility 10 miles    
Events      
Averages and records for this station are not official NWS values.
T = Trace of Precipitation, MM = Missing Value Source: NWS Daily Summary

Daily Weather History Graph

Daily Weather History Graph

Search for Another Location

Airport or City:

Trip Planner

Search our weather history database for the weather conditions in past years. The results will help you decide how hot, cold, wet, or windy it might be!

Date:

Astronomy

Feb. 06, 2014 Rise Set
Actual Time 7:10 AM CST 5:39 PM CST
Civil Twilight 6:43 AM CST 6:07 PM CST
Nautical Twilight 6:11 AM CST 6:38 PM CST
Astronomical Twilight 5:41 AM CST 7:09 PM CST
Moon 11:12 AM CST (2/6) 12:26 AM CST (2/6)
Length of Visible Light 11h 24m
Length of Day
10h 29m
Waxing Crescent, 49% of the Moon is Illuminated
Feb 6
Waxing Crescent
Feb 6
First Quarter
Feb 14
Full
Feb 22
Last Quarter
Mar 1
New

Hourly Weather History & Observations

Time (CST) Temp. Windchill Dew Point Humidity Pressure Visibility Wind Dir Wind Speed Gust Speed Precip Events Conditions
12:15 AM 6.8 °F -4.8 °F 1.4 °F 79% 30.58 in 10.0 mi NW 6.9 mph - N/A   Overcast
12:35 AM 5.0 °F -5.6 °F -0.4 °F 78% 30.58 in 10.0 mi NW 5.8 mph - N/A   Mostly Cloudy
12:55 AM 5.0 °F -5.6 °F -0.4 °F 78% 30.58 in 10.0 mi NW 5.8 mph - N/A   Scattered Clouds
1:15 AM 5.0 °F -5.6 °F -0.4 °F 78% 30.58 in 10.0 mi NW 5.8 mph - N/A   Clear
1:35 AM 5.0 °F -2.1 °F -0.4 °F 78% 30.57 in 10.0 mi NW 3.5 mph - N/A   Clear
1:55 AM 3.2 °F -9.1 °F -0.4 °F 85% 30.56 in 10.0 mi NW 6.9 mph - N/A   Clear
2:15 AM 3.2 °F -7.8 °F -0.4 °F 85% 30.56 in 10.0 mi NW 5.8 mph - N/A   Clear
2:35 AM 3.2 °F -6.2 °F -0.4 °F 85% 30.55 in 10.0 mi NW 4.6 mph - N/A   Clear
2:55 AM 3.2 °F -6.2 °F -0.4 °F 85% 30.56 in 10.0 mi WNW 4.6 mph - N/A   Clear
3:15 AM 3.2 °F -6.2 °F -0.4 °F 85% 30.56 in 10.0 mi WNW 4.6 mph - N/A   Clear
3:35 AM 3.2 °F -6.2 °F -0.4 °F 85% 30.57 in 10.0 mi WNW 4.6 mph - N/A   Clear
3:55 AM 3.2 °F -9.1 °F -0.4 °F 85% 30.56 in 10.0 mi WNW 6.9 mph - N/A   Clear
4:15 AM 3.2 °F -9.1 °F -0.4 °F 85% 30.57 in 10.0 mi NW 6.9 mph - N/A   Scattered Clouds
4:35 AM 3.2 °F -9.1 °F -2.2 °F 78% 30.57 in 10.0 mi NW 6.9 mph - N/A   Mostly Cloudy
4:55 AM 3.2 °F -9.1 °F -2.2 °F 78% 30.57 in 10.0 mi NW 6.9 mph - N/A   Mostly Cloudy
5:15 AM 3.2 °F - -2.2 °F 78% 30.58 in 10.0 mi Calm Calm - N/A   Overcast
5:35 AM 3.2 °F -4.2 °F -2.2 °F 78% 30.59 in 10.0 mi WNW 3.5 mph - N/A   Scattered Clouds
5:55 AM 3.2 °F -6.2 °F -4.0 °F 72% 30.59 in 10.0 mi WNW 4.6 mph - N/A   Scattered Clouds
6:15 AM 1.4 °F -6.2 °F -4.0 °F 78% 30.59 in 10.0 mi WNW 3.5 mph - N/A   Clear
6:35 AM 1.4 °F -8.3 °F -4.0 °F 78% 30.59 in 10.0 mi WNW 4.6 mph - N/A   Clear
6:55 AM 1.4 °F -8.3 °F -4.0 °F 78% 30.59 in 10.0 mi WNW 4.6 mph - N/A   Clear
7:15 AM 1.4 °F -8.3 °F -4.0 °F 78% 30.59 in 10.0 mi WNW 4.6 mph - N/A   Scattered Clouds
7:35 AM 1.4 °F -8.3 °F -4.0 °F 78% 30.59 in 10.0 mi WNW 4.6 mph - N/A   Mostly Cloudy
7:55 AM 1.4 °F -8.3 °F -4.0 °F 78% 30.61 in 10.0 mi WNW 4.6 mph - N/A   Scattered Clouds
8:15 AM 3.2 °F -7.8 °F -4.0 °F 72% 30.61 in 10.0 mi WNW 5.8 mph - N/A   Scattered Clouds
8:35 AM 3.2 °F -7.8 °F -4.0 °F 72% 30.61 in 10.0 mi WNW 5.8 mph - N/A   Clear
8:55 AM 3.2 °F -10.3 °F -4.0 °F 72% 30.62 in 10.0 mi WNW 8.1 mph - N/A   Clear
9:15 AM 5.0 °F -6.9 °F -4.0 °F 66% 30.62 in 10.0 mi NNW 6.9 mph - N/A   Clear
9:35 AM 5.0 °F -6.9 °F -4.0 °F 66% 30.62 in 10.0 mi NW 6.9 mph - N/A   Clear
9:55 AM 6.8 °F -5.9 °F -4.0 °F 61% 30.61 in 10.0 mi NW 8.1 mph - N/A   Scattered Clouds
10:15 AM 5.0 °F -4.1 °F -5.8 °F 61% 30.61 in 10.0 mi NNW 4.6 mph - N/A   Clear
10:35 AM 6.8 °F -4.8 °F -5.8 °F 56% 30.61 in 10.0 mi NW 6.9 mph - N/A   Clear
10:55 AM 8.6 °F -2.6 °F -5.8 °F 52% 30.61 in 10.0 mi NNW 6.9 mph - N/A   Clear
11:15 AM 8.6 °F -2.6 °F -4.0 °F 57% 30.59 in 10.0 mi NW 6.9 mph - N/A   Clear
11:35 AM 10.4 °F 0.8 °F -4.0 °F 52% 30.58 in 10.0 mi NNW 5.8 mph - N/A   Clear
11:55 AM 10.4 °F -1.5 °F -4.0 °F 52% 30.56 in 10.0 mi North 8.1 mph - N/A   Clear
12:15 PM 10.4 °F -2.4 °F -4.0 °F 52% 30.56 in 10.0 mi NW 9.2 mph - N/A   Clear
12:35 PM 10.4 °F -1.5 °F -4.0 °F 52% 30.55 in 10.0 mi NNW 8.1 mph - N/A   Clear
12:55 PM 12.2 °F -1.0 °F -2.2 °F 53% 30.54 in 10.0 mi NNW 10.4 mph - N/A   Clear
1:15 PM 12.2 °F 1.7 °F -4.0 °F 48% 30.53 in 10.0 mi North 6.9 mph - N/A   Clear
1:35 PM 12.2 °F 2.9 °F -2.2 °F 53% 30.52 in 10.0 mi North 5.8 mph - N/A   Clear
1:55 PM 12.2 °F 4.3 °F -4.0 °F 48% 30.52 in 10.0 mi NW 4.6 mph - N/A   Clear
2:15 PM 14.0 °F 6.5 °F -0.4 °F 53% 30.51 in 10.0 mi WNW 4.6 mph - N/A   Scattered Clouds
2:35 PM 14.0 °F 6.5 °F -2.2 °F 49% 30.50 in 10.0 mi NNW 4.6 mph - N/A   Scattered Clouds
2:55 PM 14.0 °F 5.1 °F -0.4 °F 53% 30.51 in 10.0 mi NNW 5.8 mph - N/A   Mostly Cloudy
3:15 PM 14.0 °F 8.2 °F -0.4 °F 53% 30.50 in 10.0 mi NNW 3.5 mph - N/A   Mostly Cloudy
3:35 PM 14.0 °F 8.2 °F -0.4 °F 53% 30.49 in 10.0 mi NNW 3.5 mph - N/A   Scattered Clouds
3:55 PM 14.0 °F 5.1 °F -0.4 °F 53% 30.49 in 10.0 mi WNW 5.8 mph - N/A   Clear
4:15 PM 14.0 °F 6.5 °F -2.2 °F 49% 30.49 in 10.0 mi NNW 4.6 mph - N/A   Clear
4:35 PM 14.0 °F 5.1 °F -0.4 °F 53% 30.48 in 10.0 mi NW 5.8 mph - N/A   Clear
4:55 PM 14.0 °F 6.5 °F -0.4 °F 53% 30.48 in 10.0 mi NNW 4.6 mph - N/A   Clear
5:15 PM 12.2 °F - -0.4 °F 57% 30.48 in 10.0 mi Calm Calm - N/A   Scattered Clouds
5:35 PM 12.2 °F - -0.4 °F 57% 30.47 in 10.0 mi Calm Calm - N/A   Mostly Cloudy
5:55 PM 12.2 °F - -0.4 °F 57% 30.48 in 10.0 mi Calm Calm - N/A   Overcast
6:15 PM 12.2 °F - -0.4 °F 57% 30.47 in 10.0 mi Calm Calm - N/A   Overcast
6:35 PM 12.2 °F - -0.4 °F 57% 30.47 in 10.0 mi Calm Calm - N/A   Mostly Cloudy
6:55 PM 10.4 °F - -0.4 °F 62% 30.46 in 10.0 mi Calm Calm - N/A   Clear
7:15 PM 10.4 °F - -2.2 °F 57% 30.47 in 10.0 mi Calm Calm - N/A   Clear
7:35 PM 8.6 °F 2.0 °F -2.2 °F 62% 30.47 in 10.0 mi NNE 3.5 mph - N/A   Clear
7:55 PM 8.6 °F 2.0 °F -2.2 °F 62% 30.47 in 10.0 mi North 3.5 mph - N/A   Clear
8:15 PM 8.6 °F - -4.0 °F 57% 30.47 in 10.0 mi Calm Calm - N/A   Clear
8:35 PM 8.6 °F - -4.0 °F 57% 30.48 in 10.0 mi Calm Calm - N/A   Clear
8:55 PM 6.8 °F - -2.2 °F 67% 30.48 in 10.0 mi Calm Calm - N/A   Clear
9:15 PM 6.8 °F - -2.2 °F 67% 30.48 in 10.0 mi Calm Calm - N/A   Clear
9:35 PM 8.6 °F - -2.2 °F 62% 30.48 in 10.0 mi Calm Calm - N/A   Clear
9:55 PM 6.8 °F - -2.2 °F 67% 30.47 in 10.0 mi Calm Calm - N/A   Clear
10:15 PM 6.8 °F - -2.2 °F 67% 30.47 in 10.0 mi Calm Calm - N/A   Clear
10:35 PM 6.8 °F - -2.2 °F 67% 30.47 in 10.0 mi Calm Calm - N/A   Clear
10:55 PM 6.8 °F - -2.2 °F 67% 30.47 in 10.0 mi Calm Calm - N/A   Clear
11:15 PM 6.8 °F - -0.4 °F 72% 30.48 in 10.0 mi Calm Calm - N/A   Clear
11:35 PM 6.8 °F - -0.4 °F 72% 30.47 in 10.0 mi Calm Calm - N/A   Clear
11:55 PM 5.0 °F - -0.4 °F 78% 30.45 in 10.0 mi Calm Calm - N/A   Clear